Preview of NWS' New Version of Forecast
This preview is not operational and should not be used for support decisions.

Regional Weather Roundup (RWR)

Issued by National Weather Service (NWS)

                            
000
ASCA42 TJSJ 171210
RWRPR 
PUERTO RICO/U.S. VIRGIN ISLANDS HOURLY WEATHER ROUNDUP
NATIONAL WEATHER SERVICE SAN JUAN PR
800 AM AST SUN FEB 17 2019

PRZ001>002-007>008-010-171300-
PUERTO RICO
  
CITY           SKY/WX    TMP DP  RH WIND       PRES   REMARKS
SAN JUAN LMM   MOSUNNY   79  72  78 S3        30.09R                  
AGUADILLA      SUNNY     73  64  73 SE3       30.09R                  
CEIBA            N/A    N/A N/A N/A MISG      30.10R                  
$$

VIZ001>002-171300-
U.S. VIRGIN ISLANDS
  
CITY           SKY/WX    TMP DP  RH WIND       PRES   REMARKS
CHARLOTTE AMA  MOSUNNY   79  73  83 SE12      30.08R                  
CHRISTIANSTED  MOSUNNY   79  75  89 E6        30.09R                  
$$

HOURLY WEATHER ROUNDUP FOR THE NEWS MEDIA
  
CITY           SKY/WX    TMP DP  RH WIND       PRES   REMARKS
ORLANDO        CLOUDY    66  64  93 S3        29.98R                  
NEW YORK       FAIR      25  14  63 N10       30.12R WCI  15          
NEWARK         FAIR      23  14  68 N6        30.13R WCI  16          
CHICAGO        FLURRIES  25  19  78 E16       29.91F WCI  12          
HARTFORD       FAIR      23  11  60 N3        30.07R                  
BOSTON         FAIR      24   8  50 N7        30.10R WCI  16          
DALLAS         CLOUDY    44  41  89 N9        29.84R                  
PHILADELPHIA   FAIR      26  14  60 N10       30.14R WCI  16          
LOS ANGELES    PTCLDY    48  39  71 CALM      30.06F                  
WASHINGTON DC  FAIR      24  18  77 CALM      30.12R